Temperature
9 8 8 9 10 10 10 10 10 11 12 11 10 10 11 11 11 11 10 10 9 9 9 8 8 8 8 8 8 8 8 8 8 9 9 9 10 10 11 11 11 11 12 12
8 8 9 10 10 10 10 9 10 11 11 11 10 10 11 11 11 10 10 9 9 8 8 7 7 7 7 7 7 7 7 8 8 8 8 8 9 9 10 10 11 11 11 11
9 9 10 10 10 10 10 9 9 9 10 10 10 9 10 11 11 10 9 9 8 7 7 6 6 7 7 7 7 7 7 7 7 8 8 8 8 9 9 10 10 10 11 11
9 10 9 9 9 10 9 10 10 9 8 8 9 8 9 10 10 9 9 8 7 6 6 6 6 6 6 6 6 6 6 7 7 7 7 8 8 8 9 9 9 10 10 10
9 9 9 9 9 9 9 10 9 9 8 8 9 8 9 10 9 9 8 8 7 6 5 5 5 5 5 5 5 6 6 6 6 7 7 7 7 7 8 8 8 9 9 9
9 9 9 9 9 9 9 9 9 9 8 7 9 8 9 9 8 8 8 7 6 6 5 5 5 5 5 5 5 5 5 6 6 6 6 6 7 7 7 7 8 8 8 9
9 9 9 9 9 9 9 7 7 8 8 9 10 9 8 9 9 8 7 7 6 5 5 4 4 4 4 5 5 5 5 5 5 6 6 6 6 6 7 7 7 7 8 8
8 8 9 9 8 8 8 8 7 7 8 9 9 8 9 9 9 8 7 6 6 5 4 4 4 4 4 4 4 4 5 5 5 5 5 5 5 6 6 6 6 7 7 7
7 8 9 9 9 8 8 8 8 7 7 7 9 10 9 8 8 7 7 6 5 5 4 4 4 4 4 4 4 4 4 5 5 5 5 5 5 5 5 6 6 6 6 6
7 7 8 9 8 8 8 8 7 7 7 8 9 10 8 7 7 7 7 6 5 5 4 4 3 3 3 3 4 4 4 4 4 4 4 5 5 5 5 5 5 6 6 6
7 6 7 8 8 8 8 8 7 7 7 7 8 8 9 8 7 7 6 6 5 5 4 4 3 3 3 3 3 4 4 4 4 4 4 4 4 5 5 5 5 5 6 6
7 7 6 8 8 8 8 8 8 7 7 7 7 7 9 8 7 7 6 6 5 4 4 4 3 3 3 3 3 3 3 4 4 4 4 4 4 4 5 5 5 5 5 5
7 7 6 7 7 7 8 8 8 7 6 6 6 7 9 8 8 7 6 6 5 4 4 3 3 3 3 3 3 3 3 3 3 3 3 3 4 4 4 4 4 4 5 5
7 7 6 7 8 8 7 8 8 7 5 6 7 7 8 8 7 7 6 6 5 5 4 3 3 3 3 2 2 2 3 3 3 3 3 3 3 3 3 4 4 4 4 4
7 6 7 7 8 8 8 8 8 7 6 6 7 7 7 7 7 7 6 6 5 4 4 3 3 2 2 2 2 2 2 2 2 3 3 3 3 3 3 3 3 3 3 3
7 7 7 7 8 8 8 8 8 7 7 7 7 7 8 8 8 7 6 6 5 4 4 3 3 2 2 2 2 2 2 2 2 2 2 2 2 2 3 3 3 3 3 3
6 7 7 7 9 8 7 8 8 7 7 7 7 7 7 7 7 7 6 6 5 4 4 3 3 2 2 2 2 2 2 2 2 2 1 1 1 2 2 2 2 2 2 2
6 6 6 6 7 7 8 9 9 8 8 7 7 7 7 7 7 7 7 6 5 5 4 3 3 3 2 2 2 2 2 1 1 1 1 1 1 1 1 1 1 1 1 1
5 6 6 6 6 7 8 8 8 7 7 7 7 7 7 7 6 6 7 6 5 5 4 4 3 3 2 2 2 2 2 1 1 1 1 1 0 0 0 1 1 1 1 1
5 5 5 6 6 6 8 7 8 7 6 7 7 6 6 6 4 5 6 6 5 5 4 4 3 3 2 2 2 2 1 1 1 1 1 1 0 0 0 0 0 0 1 0
4 4 4 5 5 7 7 7 7 6 6 7 7 7 6 5 5 6 6 5 5 4 4 4 3 3 2 2 2 1 1 1 1 1 1 1 0 0 0 0 0 0 0 0
5 5 5 5 5 6 7 6 6 6 7 7 6 6 6 6 6 5 5 5 4 4 4 3 3 3 2 2 2 1 1 1 1 1 0 0 0 0 0 0 -0 -0 -0 -0
6 6 6 6 6 7 7 7 7 7 6 6 6 5 5 5 5 5 4 4 4 4 4 3 3 3 2 2 2 1 1 1 0 0 0 0 -0 -0 -0 -0 -0 -1 -1 -1
6 6 5 5 6 7 8 7 7 6 6 5 5 5 4 4 4 4 4 4 4 4 3 3 3 3 2 2 2 1 1 0 0 0 -0 -0 -0 -1 -1 -1 -1 -1 -1 -1
6 5 4 4 6 7 7 7 6 6 5 5 5 5 4 4 4 4 4 4 3 3 3 3 2 2 2 2 2 1 1 0 0 -0 -0 -0 -1 -1 -1 -1 -1 -1 -1 -2
5 5 4 5 6 5 6 6 6 5 5 5 4 4 4 4 4 3 3 3 3 3 3 2 2 2 2 1 1 1 1 0 -0 -1 -1 -1 -1 -1 -1 -1 -1 -2 -2 -2
Wind_Speed
3 2 2 3 3 2 2 4 5 4 2 3 7 9 6 4 3 3 3 4 4 5 5 6 6 6 6 6 5 5 5 5 3 2 3 3 3 3 3 3 4 4 4 5
2 2 1 1 1 3 4 5 5 3 3 5 8 9 5 2 1 2 3 4 5 6 7 8 8 7 6 6 6 5 5 5 4 3 3 3 3 3 4 3 3 4 4 4
1 2 2 2 3 4 4 4 3 4 6 6 5 5 3 3 2 3 3 3 5 6 7 9 9 8 8 7 6 6 6 6 5 4 2 3 2 3 3 3 3 4 3 4
0 2 2 2 2 2 3 3 4 5 4 3 2 4 3 3 1 2 3 4 5 6 7 8 9 10 9 8 6 6 6 6 5 4 3 3 3 4 4 3 3 3 3 4
1 2 1 2 2 2 2 4 6 6 4 4 5 4 4 3 1 2 4 4 5 6 7 8 10 9 9 8 6 6 6 6 5 4 3 3 3 3 2 2 2 3 3 3
1 1 1 1 2 2 3 4 5 3 2 4 5 5 3 1 0 2 3 4 4 6 7 8 9 8 8 8 7 6 5 5 4 3 2 2 3 2 2 2 3 2 2 2
1 3 2 1 2 1 1 2 1 1 3 4 4 3 3 2 4 2 3 4 4 5 6 7 9 9 9 9 8 7 5 5 4 3 2 2 3 2 2 2 2 2 1 1
1 1 3 1 1 1 2 1 1 2 2 2 1 3 1 5 5 4 3 3 4 5 6 7 7 8 8 9 8 7 6 5 4 3 3 3 3 2 2 2 2 2 1 2
3 0 3 1 1 2 1 1 1 2 4 3 4 2 3 4 3 2 3 4 4 5 6 7 8 7 8 8 8 6 6 6 5 4 3 2 2 2 2 2 2 2 2 2
3 2 1 3 1 2 2 3 2 2 3 3 3 2 1 1 0 1 3 3 4 5 6 7 7 7 7 7 7 6 6 5 4 4 3 3 3 3 2 2 2 2 2 2
2 2 1 2 3 3 3 2 2 3 3 2 3 2 2 3 2 0 2 3 3 4 5 6 6 6 6 7 7 7 6 5 5 5 4 3 3 3 3 3 2 2 2 2
1 2 3 2 2 1 2 2 2 2 3 2 3 3 3 4 3 1 0 2 3 3 4 4 5 6 7 7 7 7 7 6 5 5 5 4 4 4 4 4 3 3 3 3
2 2 3 1 1 2 3 3 3 2 3 3 3 3 2 2 1 1 0 1 2 3 4 4 5 6 7 7 7 7 7 7 6 5 5 5 4 4 4 4 4 4 3 3
2 3 3 3 2 1 4 4 4 3 3 4 5 5 4 2 2 1 0 1 2 2 3 4 5 5 6 6 7 7 7 7 7 6 6 6 4 4 4 4 4 4 4 4
2 3 5 7 8 6 8 8 7 8 7 5 5 6 7 4 3 1 1 1 2 2 3 4 5 5 6 6 6 6 6 6 6 6 6 6 5 4 4 4 4 4 4 4
2 4 5 6 6 7 8 9 8 8 8 9 9 8 5 3 2 2 2 2 2 2 2 3 4 5 5 6 6 6 6 6 6 6 6 6 6 5 5 5 4 4 4 4
2 3 3 4 3 5 6 6 7 4 4 5 7 5 2 2 3 4 3 3 3 2 2 2 3 3 4 4 5 5 5 6 6 6 6 6 6 6 5 6 5 5 5 4
3 3 3 4 6 5 3 2 1 4 4 4 4 4 3 3 4 3 3 3 3 2 2 1 1 3 3 3 4 4 4 5 5 6 6 6 6 6 5 5 5 4 4 4
3 2 3 3 4 6 2 2 1 2 3 3 4 4 3 2 3 3 2 3 3 2 1 0 0 1 2 3 3 3 4 4 5 5 6 6 6 5 5 5 5 4 4 4
2 3 3 3 3 4 2 2 2 1 3 1 1 2 2 0 2 3 0 1 1 1 1 1 1 1 1 2 2 2 3 4 4 5 5 5 5 5 4 4 4 4 4 4
3 4 5 5 5 5 1 2 2 2 4 1 0 2 2 3 4 3 1 1 2 2 2 2 1 1 1 1 1 2 3 3 4 4 5 5 5 5 4 4 4 4 4 4
6 5 5 4 5 7 2 3 3 3 1 1 2 2 3 4 4 3 2 2 3 2 2 2 2 2 1 1 1 2 3 3 3 4 4 5 5 5 4 4 4 4 3 4
6 5 3 6 6 3 5 5 3 0 2 3 3 4 3 4 4 4 3 3 3 3 3 3 3 2 2 1 1 2 3 2 3 3 4 4 5 4 4 4 4 4 3 3
4 4 3 5 7 5 5 5 4 3 4 4 4 4 4 5 5 4 4 3 3 3 4 3 3 3 3 2 2 2 2 1 2 3 4 4 4 4 4 4 3 3 3 3
5 4 4 7 7 6 5 4 3 2 3 4 4 4 4 5 5 5 4 4 3 3 3 3 4 4 4 3 3 2 1 2 2 3 3 3 3 4 4 4 4 4 3 4
7 8 7 7 5 4 3 1 0 2 4 4 4 5 4 4 5 5 5 4 3 3 3 4 5 5 4 3 3 3 2 2 3 3 3 3 3 3 3 4 5 5 5 7
Wind_Direction
158 206 193 186 223 306 298 275 272 276 297 294 263 272 281 284 287 316 338 339 339 348 351 351 347 340 332 331 324 314 305 295 287 267 256 249 252 249 247 237 233 233 228 217
169 200 165 131 245 264 264 272 280 296 332 295 273 278 272 246 227 16 1 3 4 357 356 352 346 341 338 330 324 323 316 305 293 278 263 253 251 246 240 239 236 232 224 215
142 101 142 208 236 260 275 266 286 311 315 270 276 280 199 147 110 39 24 23 15 0 353 346 340 343 341 335 332 325 319 314 308 297 282 272 267 260 244 242 237 229 221 216
103 117 199 233 256 278 282 334 313 300 305 287 289 287 229 180 150 15 13 25 15 7 358 348 345 345 341 334 330 327 319 315 308 299 281 259 250 251 254 251 243 238 225 219
78 108 229 251 284 320 288 317 290 278 279 289 237 242 260 156 221 344 9 15 8 10 1 350 346 341 337 333 331 325 319 318 310 297 283 270 264 264 276 277 256 245 237 228
203 104 1 319 325 248 284 291 272 239 251 266 219 212 268 163 170 352 7 10 7 7 359 352 346 344 341 337 333 327 325 322 323 319 316 293 279 278 281 274 260 252 243 239
165 159 151 264 286 201 277 328 335 221 225 246 177 200 251 90 83 56 13 0 8 9 1 353 349 349 346 342 341 338 339 342 342 341 332 310 294 276 269 280 269 263 268 263
296 169 150 174 322 322 294 290 334 293 284 316 241 229 179 92 81 63 32 16 15 8 359 351 350 349 343 340 342 346 347 347 347 351 342 318 294 280 277 293 284 273 271 273
353 12 125 138 11 316 308 292 18 290 281 260 237 193 127 81 70 43 15 12 7 4 360 355 353 350 348 347 347 345 353 360 4 1 348 332 313 313 325 322 306 296 301 284
336 299 220 137 176 225 283 321 305 280 305 292 274 226 222 123 297 357 0 353 0 9 1 355 355 354 354 353 349 356 5 1 355 349 348 353 352 355 352 336 341 340 322 322
319 298 255 196 208 195 192 222 253 269 269 285 296 299 74 139 141 359 334 346 7 2 356 358 356 353 358 0 3 6 6 3 3 2 5 9 4 7 6 360 355 351 350 337
331 307 281 232 129 43 255 246 222 274 289 265 274 277 91 102 121 137 296 343 2 358 357 356 356 360 3 5 5 6 6 7 7 7 9 14 15 19 17 6 356 0 355 340
331 301 305 222 170 201 244 240 237 265 289 262 259 256 96 81 100 113 93 335 345 349 358 359 1 4 5 4 4 5 10 11 12 18 18 21 17 15 13 7 360 4 2 6
311 267 252 268 292 275 254 237 217 212 239 265 244 261 289 294 301 296 270 312 330 339 0 2 360 1 2 2 2 2 5 10 10 15 18 20 16 15 16 13 11 7 9 20
278 275 274 275 275 269 261 256 233 222 233 251 276 282 276 280 271 254 243 278 309 340 355 357 355 355 357 357 357 1 3 6 10 15 15 11 12 14 19 19 14 7 11 12
272 283 293 277 253 250 260 252 238 235 237 250 272 285 267 271 249 243 246 251 272 302 329 347 352 353 351 351 354 358 360 1 9 17 11 4 9 15 17 13 10 10 7 3
266 287 305 287 293 295 268 242 214 214 219 232 254 262 272 277 251 242 240 246 258 271 300 324 342 341 342 348 354 357 358 360 7 11 5 1 6 11 12 11 14 8 1 3
272 290 282 292 308 258 232 73 153 217 234 230 258 278 279 270 266 251 223 221 244 250 266 295 338 337 341 351 356 359 3 4 5 4 360 358 2 5 6 9 8 359 356 358
239 269 281 284 287 275 223 150 147 223 264 233 243 268 286 322 327 285 228 202 217 208 180 165 338 337 340 347 351 355 357 1 2 356 352 352 355 355 355 357 354 351 351 350
228 252 265 268 271 265 265 117 97 84 270 326 228 267 288 90 280 270 216 157 177 158 148 150 123 21 332 327 340 345 345 353 349 343 342 344 345 345 343 343 339 340 345 343
198 213 225 241 256 267 247 148 128 177 257 335 291 250 239 229 241 274 281 235 202 195 185 165 166 216 264 305 316 319 330 335 331 334 336 337 339 340 340 338 332 335 339 342
195 202 209 209 231 252 167 144 185 228 306 309 276 265 255 260 281 291 275 245 218 208 204 191 202 230 240 237 270 293 306 317 329 330 329 328 332 335 337 332 331 332 340 347
210 209 209 211 224 216 169 200 217 190 279 284 278 282 274 276 277 278 271 255 229 215 211 207 215 233 237 227 236 267 282 311 322 318 314 316 325 326 324 327 329 332 341 345
226 195 234 265 261 252 221 216 227 234 249 267 272 276 276 271 274 273 264 256 240 225 214 209 211 230 244 243 248 257 275 280 296 300 303 312 321 321 323 325 323 326 331 336
241 195 228 254 268 282 251 229 243 254 268 276 276 265 260 266 269 264 262 254 242 240 220 206 217 232 240 237 240 248 258 277 281 287 295 303 304 306 311 316 315 316 309 311
211 209 214 236 227 228 253 252 203 261 263 265 272 276 268 251 260 263 259 247 237 237 232 225 228 236 242 236 240 237 229 251 269 279 288 292 293 297 302 309 318 318 308 311
Height
1485 1488 1487 1487 1486 1486 1487 1488 1487 1484 1481 1484 1482 1480 1477 1477 1477 1476 1476 1476 1475 1474 1473 1471 1469 1467 1464 1462 1460 1459 1458 1457 1456 1456 1457 1458 1459 1461 1464 1466 1468 1471 1473 1475
1486 1487 1486 1485 1486 1487 1487 1488 1487 1483 1482 1483 1481 1477 1474 1474 1475 1475 1475 1475 1474 1473 1471 1469 1466 1463 1461 1459 1457 1455 1453 1453 1452 1452 1453 1454 1455 1457 1459 1461 1463 1465 1467 1470
1485 1486 1485 1486 1486 1486 1486 1487 1487 1487 1485 1480 1481 1478 1472 1472 1473 1474 1474 1474 1473 1472 1470 1467 1464 1461 1458 1456 1454 1452 1450 1449 1448 1448 1449 1450 1452 1453 1455 1456 1458 1460 1462 1464
1484 1485 1486 1486 1486 1486 1488 1484 1485 1486 1489 1488 1484 1488 1474 1471 1473 1473 1474 1473 1473 1471 1468 1465 1462 1458 1455 1453 1451 1448 1446 1445 1444 1445 1445 1446 1448 1449 1450 1452 1453 1455 1457 1459
1485 1485 1486 1487 1486 1487 1487 1485 1486 1486 1488 1490 1483 1487 1477 1470 1473 1473 1473 1473 1472 1470 1467 1464 1460 1456 1453 1450 1447 1445 1443 1442 1441 1441 1442 1443 1444 1445 1447 1448 1449 1450 1452 1454
1486 1486 1487 1487 1487 1487 1487 1486 1484 1485 1489 1491 1480 1483 1477 1472 1472 1472 1472 1472 1471 1469 1466 1463 1458 1454 1451 1448 1445 1442 1441 1439 1438 1438 1439 1440 1441 1442 1444 1444 1445 1446 1447 1449
1486 1486 1487 1488 1487 1487 1488 1492 1492 1490 1489 1482 1472 1477 1476 1469 1470 1471 1472 1471 1470 1468 1465 1461 1457 1453 1449 1446 1443 1441 1439 1437 1436 1436 1436 1437 1438 1440 1440 1441 1442 1442 1443 1445
1489 1490 1487 1488 1489 1490 1489 1491 1496 1494 1487 1480 1474 1476 1472 1469 1470 1471 1471 1471 1469 1467 1464 1461 1457 1453 1449 1446 1443 1441 1438 1436 1435 1434 1435 1436 1437 1438 1438 1438 1439 1439 1439 1441
1491 1491 1487 1488 1488 1489 1489 1490 1490 1494 1488 1487 1475 1468 1469 1469 1470 1471 1471 1470 1468 1466 1464 1460 1457 1453 1450 1446 1443 1441 1438 1436 1435 1434 1434 1434 1435 1435 1435 1436 1436 1436 1437 1438
1493 1494 1488 1488 1489 1490 1491 1490 1492 1493 1490 1484 1471 1467 1471 1472 1471 1470 1470 1469 1468 1466 1463 1460 1457 1453 1450 1447 1444 1440 1438 1436 1435 1434 1433 1433 1433 1433 1433 1434 1433 1433 1434 1434
1493 1495 1491 1488 1488 1488 1490 1490 1490 1490 1488 1489 1483 1476 1466 1468 1469 1469 1469 1469 1467 1466 1463 1460 1457 1454 1451 1447 1444 1441 1438 1436 1434 1433 1432 1432 1432 1432 1432 1431 1431 1431 1431 1432
1493 1494 1493 1487 1485 1485 1486 1486 1488 1493 1489 1485 1486 1481 1466 1466 1467 1468 1468 1468 1467 1465 1463 1460 1458 1454 1451 1447 1444 1441 1438 1436 1434 1433 1432 1431 1430 1430 1430 1430 1429 1429 1429 1428
1493 1494 1495 1488 1491 1489 1486 1484 1485 1488 1490 1488 1486 1478 1465 1466 1466 1467 1467 1467 1466 1465 1463 1460 1458 1455 1451 1448 1445 1442 1439 1436 1434 1432 1431 1429 1429 1428 1428 1428 1427 1427 1426 1426
1493 1493 1495 1492 1486 1485 1485 1483 1484 1488 1491 1485 1478 1473 1467 1466 1466 1466 1466 1466 1465 1464 1462 1460 1458 1455 1452 1449 1446 1443 1440 1437 1435 1432 1431 1429 1428 1427 1427 1427 1426 1425 1424 1423
1493 1492 1488 1485 1481 1480 1480 1479 1479 1482 1482 1482 1474 1470 1466 1465 1465 1465 1465 1465 1464 1463 1462 1460 1458 1455 1453 1450 1447 1444 1441 1438 1436 1433 1431 1429 1428 1427 1426 1425 1425 1424 1423 1423
1492 1491 1487 1483 1476 1476 1476 1473 1474 1475 1475 1474 1471 1469 1463 1463 1464 1464 1464 1463 1463 1462 1461 1459 1457 1455 1453 1450 1447 1445 1442 1439 1437 1434 1432 1430 1428 1427 1426 1425 1424 1423 1422 1422
1492 1490 1489 1484 1474 1475 1475 1467 1468 1469 1468 1469 1470 1466 1462 1462 1462 1462 1462 1461 1461 1460 1459 1458 1456 1455 1453 1450 1448 1445 1442 1440 1437 1434 1432 1430 1429 1427 1425 1424 1423 1422 1422 1420
1492 1490 1490 1487 1481 1481 1467 1461 1461 1464 1464 1464 1463 1462 1461 1461 1460 1460 1460 1459 1459 1459 1458 1457 1455 1453 1452 1450 1448 1445 1442 1440 1437 1435 1433 1431 1429 1427 1425 1424 1423 1422 1421 1420
1491 1492 1491 1489 1484 1473 1464 1462 1463 1465 1464 1460 1460 1460 1460 1459 1459 1458 1458 1457 1457 1457 1456 1455 1454 1453 1451 1449 1447 1445 1442 1440 1437 1435 1433 1431 1429 1427 1425 1424 1422 1421 1420 1418
1490 1491 1494 1488 1485 1479 1464 1462 1461 1465 1465 1458 1458 1458 1458 1458 1461 1458 1456 1455 1455 1455 1454 1453 1452 1451 1449 1448 1446 1444 1442 1440 1438 1435 1433 1431 1429 1427 1425 1423 1422 1420 1419 1417
1491 1491 1492 1489 1484 1470 1463 1461 1463 1469 1464 1458 1457 1457 1457 1457 1457 1456 1454 1453 1453 1452 1452 1451 1450 1449 1448 1446 1445 1443 1441 1439 1437 1435 1433 1431 1429 1427 1425 1423 1421 1420 1418 1416
1484 1485 1484 1482 1481 1474 1461 1461 1463 1462 1457 1456 1456 1456 1455 1454 1453 1452 1451 1451 1450 1450 1449 1448 1447 1446 1446 1445 1443 1442 1440 1439 1437 1435 1433 1431 1429 1427 1425 1422 1420 1418 1416 1414
1474 1473 1472 1471 1468 1459 1457 1457 1456 1456 1456 1455 1454 1453 1453 1452 1450 1449 1449 1448 1447 1447 1446 1446 1445 1444 1443 1442 1441 1440 1438 1437 1435 1433 1431 1429 1427 1425 1424 1421 1419 1417 1415 1412
1466 1465 1466 1464 1457 1454 1454 1453 1453 1453 1453 1452 1451 1451 1450 1448 1447 1446 1445 1445 1444 1444 1443 1443 1442 1441 1440 1440 1439 1438 1436 1435 1433 1431 1429 1428 1426 1424 1422 1420 1418 1416 1413 1411
1463 1463 1463 1461 1454 1452 1450 1450 1450 1449 1449 1448 1448 1447 1446 1445 1444 1443 1442 1441 1441 1440 1440 1439 1439 1438 1437 1436 1435 1435 1433 1432 1430 1429 1427 1425 1424 1422 1420 1418 1416 1414 1412 1410
1456 1457 1459 1454 1449 1449 1447 1447 1447 1446 1445 1445 1444 1443 1442 1441 1440 1439 1438 1438 1437 1437 1436 1436 1435 1434 1434 1433 1432 1431 1430 1429 1427 1426 1424 1423 1421 1419 1418 1416 1414 1412 1411 1408